When you browse on this site, cookies collect data to enhance your experience and personalize the content and advertising you see.
Visit our Privacy Policy to learn more. By continuing to use the site, you agree to this use of cookies and data.
  • En España
  • Lista de países
  • Para 7 días
  • Temperatura del agua
  • El tiempo en el mapa
  • Informadores
  • user-avatar
    Iniciar sesión

    Tiempo cada hora Gandia

    Hoy, 22 Noviembre, Viernes

    Tiempo Temperatura Precipitaciones Viento Presión Humedad
    00:00 +14°C° 0 mm 2 mps 752 mmHg 74%
    01:00 +14°C° 0 mm 2 mps 752 mmHg 75%
    02:00 +13°C° 0 mm 2 mps 751 mmHg 77%
    03:00 +13°C° 0 mm 1 mps 751 mmHg 78%
    04:00 +13°C° 0 mm 1 mps 751 mmHg 78%
    05:00 +13°C° 0 mm 1 mps 751 mmHg 77%
    06:00 +13°C° 0 mm 1 mps 751 mmHg 77%
    07:00 +14°C° 0 mm 1 mps 751 mmHg 73%
    08:00 +15°C° 0 mm 2 mps 750 mmHg 69%
    09:00 +16°C° 0 mm 2 mps 750 mmHg 65%
    10:00 +17°C° 0 mm 2 mps 750 mmHg 65%
    11:00 +17°C° 0 mm 3 mps 749 mmHg 64%
    12:00 +18°C° 0 mm 3 mps 749 mmHg 63%
    13:00 +17°C° 0 mm 4 mps 748 mmHg 69%
    14:00 +16°C° 0 mm 6 mps 747 mmHg 74%
    15:00 +15°C° 0 mm 7 mps 746 mmHg 80%
    16:00 +15°C° 0.1 mm 8 mps 745 mmHg 81%
    17:00 +15°C° 0.1 mm 9 mps 745 mmHg 83%
    18:00 +14°C° 0.1 mm 10 mps 744 mmHg 84%
    19:00 +15°C° 0.9 mm 9 mps 744 mmHg 85%
    20:00 +15°C° 0.9 mm 9 mps 744 mmHg 87%
    21:00 +15°C° 0.9 mm 8 mps 743 mmHg 88%
    22:00 +15°C° 0.1 mm 7 mps 743 mmHg 85%
    23:00 +14°C° 0.1 mm 7 mps 743 mmHg 83%

    Mañana, 23 Noviembre, Sábado

    Tiempo Temperatura Precipitaciones Viento Presión Humedad
    00:00 +14°C° 0.1 mm 6 mps 742 mmHg 81%
    01:00 +12°C° 0 mm 7 mps 742 mmHg 78%
    02:00 +11°C° 0 mm 8 mps 742 mmHg 74%
    03:00 +11°C° 0 mm 8 mps 741 mmHg 71%
    04:00 +11°C° 0 mm 9 mps 742 mmHg 70%
    05:00 +9°C° 0 mm 10 mps 742 mmHg 69%
    06:00 +9°C° 0 mm 10 mps 742 mmHg 68%
    07:00 +11°C° 0 mm 11 mps 743 mmHg 64%
    08:00 +11°C° 0 mm 11 mps 744 mmHg 61%
    09:00 +12°C° 0 mm 11 mps 745 mmHg 57%
    10:00 +12°C° 0 mm 12 mps 745 mmHg 53%
    11:00 +13°C° 0 mm 12 mps 745 mmHg 49%
    12:00 +14°C° 0 mm 12 mps 746 mmHg 45%
    13:00 +14°C° 0 mm 12 mps 746 mmHg 44%
    14:00 +14°C° 0 mm 11 mps 747 mmHg 42%
    15:00 +14°C° 0 mm 11 mps 747 mmHg 41%
    16:00 +13°C° 0 mm 11 mps 748 mmHg 44%
    17:00 +12°C° 0 mm 11 mps 748 mmHg 48%
    18:00 +11°C° 0 mm 11 mps 749 mmHg 51%
    19:00 +11°C° 0 mm 11 mps 750 mmHg 51%
    20:00 +11°C° 0 mm 11 mps 751 mmHg 51%
    21:00 +10°C° 0 mm 12 mps 751 mmHg 51%
    22:00 +10°C° 0 mm 12 mps 752 mmHg 53%
    23:00 +10°C° 0 mm 12 mps 752 mmHg 55%

    Pasado mañana, 24 Noviembre, Domingo

    Tiempo Temperatura Precipitaciones Viento Presión Humedad
    00:00 +11°C° 0 mm 11 mps 752 mmHg 57%
    01:00 +9°C° 0 mm 11 mps 753 mmHg 59%
    02:00 +9°C° 0 mm 10 mps 753 mmHg 60%
    03:00 +10°C° 0 mm 9 mps 753 mmHg 62%
    04:00 +8°C° 0 mm 9 mps 754 mmHg 62%
    05:00 +9°C° 0 mm 8 mps 754 mmHg 62%
    06:00 +9°C° 0 mm 8 mps 755 mmHg 63%
    07:00 +10°C° 0 mm 8 mps 755 mmHg 59%
    08:00 +11°C° 0 mm 8 mps 756 mmHg 55%
    09:00 +12°C° 0 mm 7 mps 756 mmHg 51%
    10:00 +14°C° 0 mm 7 mps 756 mmHg 48%
    11:00 +15°C° 0 mm 6 mps 757 mmHg 45%
    12:00 +16°C° 0 mm 6 mps 757 mmHg 42%
    13:00 +17°C° 0 mm 5 mps 757 mmHg 42%
    14:00 +18°C° 0 mm 4 mps 756 mmHg 42%
    15:00 +18°C° 0 mm 4 mps 756 mmHg 42%
    16:00 +15°C° 0 mm 4 mps 757 mmHg 45%
    17:00 +14°C° 0 mm 5 mps 757 mmHg 49%
    18:00 +11°C° 0 mm 6 mps 757 mmHg 53%
    19:00 +11°C° 0 mm 6 mps 758 mmHg 54%
    20:00 +11°C° 0 mm 6 mps 758 mmHg 56%
    21:00 +10°C° 0 mm 6 mps 758 mmHg 57%
    22:00 +10°C° 0 mm 6 mps 758 mmHg 60%
    23:00 +10°C° 0 mm 6 mps 758 mmHg 63%

    25 Noviembre, Lunes

    Tiempo Temperatura Precipitaciones Viento Presión Humedad
    00:00 +9°C° 0 mm 6 mps 758 mmHg 66%
    01:00 +9°C° 0 mm 5 mps 758 mmHg 68%
    02:00 +10°C° 0 mm 5 mps 758 mmHg 69%
    03:00 +10°C° 0 mm 5 mps 758 mmHg 71%
    04:00 +10°C° 0 mm 5 mps 758 mmHg 74%
    05:00 +10°C° 0 mm 5 mps 758 mmHg 76%
    06:00 +10°C° 0 mm 5 mps 758 mmHg 78%
    07:00 +12°C° 0 mm 5 mps 758 mmHg 74%
    08:00 +14°C° 0 mm 6 mps 759 mmHg 70%
    09:00 +16°C° 0 mm 6 mps 759 mmHg 66%
    10:00 +19°C° 0 mm 6 mps 759 mmHg 62%
    11:00 +20°C° 0 mm 6 mps 759 mmHg 57%
    12:00 +22°C° 0 mm 6 mps 758 mmHg 53%
    13:00 +22°C° 0 mm 6 mps 758 mmHg 54%
    14:00 +22°C° 0 mm 5 mps 758 mmHg 55%
    15:00 +22°C° 0 mm 5 mps 758 mmHg 56%
    16:00 +20°C° 0 mm 5 mps 758 mmHg 62%
    17:00 +17°C° 0 mm 5 mps 758 mmHg 69%
    18:00 +17°C° 0 mm 4 mps 758 mmHg 75%
    19:00 +15°C° 0 mm 4 mps 759 mmHg 76%
    20:00 +15°C° 0 mm 5 mps 759 mmHg 77%
    21:00 +15°C° 0 mm 5 mps 759 mmHg 78%
    22:00 +14°C° 0 mm 5 mps 759 mmHg 78%
    23:00 +14°C° 0 mm 5 mps 759 mmHg 78%

    26 Noviembre, Martes

    Tiempo Temperatura Precipitaciones Viento Presión Humedad
    00:00 +14°C° 0 mm 5 mps 759 mmHg 78%
    01:00 +14°C° 0 mm 5 mps 759 mmHg 79%
    02:00 +14°C° 0 mm 5 mps 759 mmHg 79%
    03:00 +14°C° 0 mm 5 mps 759 mmHg 79%
    04:00 +14°C° 0 mm 5 mps 759 mmHg 79%
    05:00 +14°C° 0 mm 5 mps 759 mmHg 79%
    06:00 +14°C° 0 mm 5 mps 759 mmHg 79%
    07:00 +15°C° 0 mm 5 mps 759 mmHg 74%
    08:00 +16°C° 0 mm 5 mps 759 mmHg 69%
    09:00 +17°C° 0 mm 5 mps 759 mmHg 63%
    10:00 +19°C° 0 mm 4 mps 759 mmHg 59%
    11:00 +20°C° 0 mm 4 mps 758 mmHg 54%
    12:00 +21°C° 0 mm 4 mps 758 mmHg 50%
    13:00 +21°C° 0 mm 4 mps 757 mmHg 51%
    14:00 +21°C° 0 mm 4 mps 757 mmHg 52%
    15:00 +21°C° 0 mm 4 mps 756 mmHg 52%
    16:00 +20°C° 0 mm 4 mps 756 mmHg 56%
    17:00 +19°C° 0 mm 4 mps 757 mmHg 60%
    18:00 +18°C° 0 mm 4 mps 757 mmHg 64%
    19:00 +18°C° 0 mm 4 mps 757 mmHg 64%
    20:00 +18°C° 0 mm 4 mps 757 mmHg 64%
    21:00 +17°C° 0 mm 4 mps 757 mmHg 64%
    22:00 +17°C° 0 mm 4 mps 757 mmHg 66%
    23:00 +17°C° 0 mm 3 mps 757 mmHg 68%

    27 Noviembre, Miércoles

    Tiempo Temperatura Precipitaciones Viento Presión Humedad
    00:00 +17°C° 0 mm 3 mps 757 mmHg 70%
    01:00 +17°C° 0 mm 3 mps 756 mmHg 73%
    02:00 +16°C° 0 mm 3 mps 756 mmHg 76%
    03:00 +16°C° 0 mm 3 mps 756 mmHg 78%
    04:00 +16°C° 0 mm 3 mps 756 mmHg 80%
    05:00 +16°C° 0 mm 3 mps 756 mmHg 81%
    06:00 +16°C° 0 mm 3 mps 756 mmHg 82%
    07:00 +17°C° 0 mm 3 mps 756 mmHg 76%
    08:00 +19°C° 0 mm 4 mps 756 mmHg 71%
    09:00 +20°C° 0 mm 4 mps 757 mmHg 66%
    10:00 +21°C° 0 mm 5 mps 757 mmHg 60%
    11:00 +22°C° 0 mm 5 mps 756 mmHg 55%
    12:00 +24°C° 0 mm 6 mps 756 mmHg 50%
    13:00 +24°C° 0 mm 6 mps 756 mmHg 50%
    14:00 +25°C° 0 mm 5 mps 756 mmHg 51%
    15:00 +25°C° 0 mm 5 mps 755 mmHg 51%
    16:00 +22°C° 0 mm 4 mps 756 mmHg 58%
    17:00 +20°C° 0 mm 4 mps 756 mmHg 66%
    18:00 +18°C° 0 mm 3 mps 756 mmHg 74%
    19:00 +18°C° 0 mm 3 mps 756 mmHg 76%
    20:00 +18°C° 0 mm 3 mps 757 mmHg 78%
    21:00 +18°C° 0 mm 3 mps 757 mmHg 80%
    22:00 +17°C° 0 mm 3 mps 757 mmHg 81%
    23:00 +17°C° 0 mm 3 mps 757 mmHg 82%
    Mostrar más